Regional Weather Roundup
Issued by NWS

Home | Current Version | Previous Version | Graphics & Text | Print | Product List | Glossary On
Versions: 1 2 3 4 5 6 7 8 9 10 11 12 13 14 15 16 17 18 19 20 21 22 23 24 25 26 27 28 29 30 31 32 33 34 35 36 37 38 39 40 41 42 43 44 45 46 47 48 49 50
000
ASUS43 KTOP 261059
RWRKS

WEATHER ROUNDUP FOR KANSAS
NATIONAL WEATHER SERVICE GOODLAND KS
600 AM CDT THU MAR 26 2015

NOTE:  "FAIR" INDICATES FEW OR NO CLOUDS BELOW 12,000 FEET WITH NO
SIGNIFICANT WEATHER AND/OR OBSTRUCTIONS TO VISIBILITY.

KSZ001>006-013>018-027>032-041>047-261200-
NORTHWEST KANSAS

CITY           SKY/WX    TMP DP  RH WIND       PRES   REMARKS
GOODLAND       PTCLDY    28  25  88 W8        30.20S
HAYS           CLEAR     27  18  69 NW7       30.25R
HILL CITY      CLEAR     25  21  85 W5        30.25S
RUSSELL        CLEAR     26  23  88 NW7       30.23S
$$

KSZ061>065-074>080-084>089-261200-
SOUTHWEST KANSAS

CITY           SKY/WX    TMP DP  RH WIND       PRES   REMARKS
DODGE CITY     CLEAR     27  23  85 NW8       30.24R
ELKHART          N/A     32  26  78 W8          N/A
GARDEN CITY    CLEAR     25  23  92 NW7       30.24R
GREAT BEND     CLEAR     28  21  74 NW8       30.25R
LIBERAL        CLEAR     32  27  80 NW7       30.26S
$$

KSZ066>073-081>083-090>101-261200-
SOUTHEAST KANSAS

CITY           SKY/WX    TMP DP  RH WIND       PRES   REMARKS
CHANUTE        CLOUDY    39  34  82 N12       30.16R WCI  32
COFFEYVILLE    CLOUDY    41  36  82 N14       30.16R
HUTCHINSON     CLEAR     35  27  72 N9        30.22R
MEDICINE LODGE   N/A     34  31  88 N7        30.22R
NEWTON         MOCLDY    34  27  75 N8        30.22R
PARSONS        CLOUDY    41  36  82 N13       30.16R
WICHITA INTL   MOCLDY    38  33  82 N9        30.21R
WICHITA JABRA  MOCLDY    35  32  88 N9        30.21R
WINFIELD       PTCLDY    38  31  76 N13       30.20R WCI  30
$$

KSZ007>012-019>026-033>040-048>060-102>105-261200-
NORTHEAST KANSAS

CITY           SKY/WX    TMP DP  RH WIND       PRES   REMARKS
CONCORDIA      CLEAR     30  25  81 NW8       30.23R
EMPORIA        MOCLDY    33  30  88 NW7       30.19R
LAWRENCE       PTCLDY    31  28  89 NW8       30.19R
MANHATTAN      CLEAR     32  28  85 CALM      30.23R
OLATHE IND     MOCLDY    34  31  88 NW9       30.17R
OLATHE EXE     MOCLDY    36  31  82 N8        30.15R
SALINA         CLEAR     30  26  85 NW7       30.25R
TOPEKA BILLARD CLEAR     33  29  85 NW7       30.21R
TOPEKA FORBES  CLEAR     35  30  82 N10       30.19R WCI  27
$$



USA.gov is the U.S. government's official web portal to all federal, state and local government web resources and services.